Lone Rock, WI

6:48 AM CST on December 07, 2016 (GMT -0600)
Tri-County Regional

Weather History for KLNR - February, 2015

Change the Weather History Date:

Wednesday, February 4, 2015

  Actual Average Record
Temperature  
Mean Temperature 10 °F -  
Max Temperature 19 °F 29 °F 48 °F (2005)
Min Temperature 1 °F 13 °F -15 °F (2004)
Degree Days  
Heating Degree Days 55    
Moisture  
Dew Point 5 °F    
Average Humidity 67    
Maximum Humidity 81    
Minimum Humidity 43    
Precipitation  
Precipitation 0.00 in - - ()
Sea Level Pressure  
Sea Level Pressure 30.24 in    
Wind  
Wind Speed 7 mph (NW)    
Max Wind Speed 17 mph    
Max Gust Speed 24 mph    
Visibility 10 miles    
Events      
Averages and records for this station are not official NWS values.
T = Trace of Precipitation, MM = Missing Value Source: NWS Daily Summary

Daily Weather History Graph

Daily Weather History Graph

Search for Another Location

Airport or City:

Trip Planner

Search our weather history database for the weather conditions in past years. The results will help you decide how hot, cold, wet, or windy it might be!

Date:

Astronomy

Feb. 04, 2015 Rise Set
Actual Time 7:13 AM CST 5:16 PM CST
Civil Twilight 6:43 AM CST 5:46 PM CST
Nautical Twilight 6:09 AM CST 6:20 PM CST
Astronomical Twilight 5:35 AM CST 6:53 PM CST
Moon 6:20 PM CST (2/4) 7:14 AM CST (2/4)
Length of Visible Light 11h 03m
Length of Day
10h 03m
Waxing Gibbous, 99% of the Moon is Illuminated
Feb 4
Waxing Gibbous
Feb 11
Last Quarter
Feb 18
New
Feb 25
First Quarter
Mar 5
Full

Hourly Weather History & Observations

Time (CST) Temp. Windchill Dew Point Humidity Pressure Visibility Wind Dir Wind Speed Gust Speed Precip Events Conditions
12:56 AM 16.0 °F 8.8 °F 10.9 °F 81% 30.07 in 10.0 mi West 4.6 mph - N/A   Overcast
1:56 AM 16.0 °F 8.8 °F 10.9 °F 81% 30.07 in 10.0 mi NW 4.6 mph - N/A   Overcast
2:09 AM 16.0 °F - 10.9 °F 81% 30.04 in 10.0 mi Calm Calm - N/A   Overcast
2:56 AM 16.0 °F 7.4 °F 10.9 °F 81% 30.09 in 10.0 mi West 5.8 mph - N/A   Overcast
3:56 AM 16.0 °F 4.4 °F 10.9 °F 81% 30.09 in 10.0 mi NNW 9.2 mph - N/A   Overcast
4:56 AM 16.0 °F 6.3 °F 10.0 °F 77% 30.09 in 10.0 mi NW 6.9 mph - N/A   Overcast
5:56 AM 16.0 °F 6.3 °F 9.0 °F 74% 30.12 in 10.0 mi NNW 6.9 mph - N/A   Overcast
6:56 AM 16.0 °F 8.8 °F 9.0 °F 74% 30.15 in 10.0 mi West 4.6 mph - N/A   Overcast
7:56 AM 16.0 °F 4.4 °F 9.0 °F 74% 30.21 in 10.0 mi WNW 9.2 mph - N/A   Mostly Cloudy
8:56 AM 16.0 °F 5.3 °F 8.1 °F 71% 30.19 in 10.0 mi NW 8.1 mph - N/A   Mostly Cloudy
9:04 AM 16.0 °F 7.4 °F 9.0 °F 74% 30.17 in 10.0 mi NW 5.8 mph - N/A   Scattered Clouds
9:21 AM 16.0 °F 5.3 °F 8.1 °F 71% 30.19 in 10.0 mi NNW 8.1 mph - N/A   Mostly Cloudy
9:56 AM 16.0 °F 5.3 °F 7.0 °F 68% 30.24 in 10.0 mi NNW 8.1 mph 17.3 mph N/A   Mostly Cloudy
10:56 AM 16.0 °F 1.7 °F 6.1 °F 65% 30.25 in 10.0 mi NW 13.8 mph - N/A   Scattered Clouds
11:14 AM 17.1 °F 6.6 °F 6.1 °F 62% 30.22 in 10.0 mi NNW 8.1 mph - N/A   Mostly Cloudy
11:54 AM 17.6 °F 5.0 °F 6.8 °F 63% 30.22 in 10.0 mi NW 11.5 mph - N/A   Partly Cloudy
11:56 AM 17.1 °F 5.8 °F 6.1 °F 62% 30.25 in 10.0 mi NW 9.2 mph - N/A   Partly Cloudy
12:56 PM 18.0 °F 3.1 °F 3.9 °F 54% 30.26 in 10.0 mi NW 16.1 mph 21.9 mph N/A   Clear
1:56 PM 19.0 °F 4.5 °F 3.9 °F 52% 30.25 in 10.0 mi WNW 16.1 mph - N/A   Mostly Cloudy
2:56 PM 18.0 °F 3.1 °F 1.9 °F 50% 30.27 in 10.0 mi WNW 16.1 mph 20.7 mph N/A   Overcast
3:56 PM 17.1 °F 3.0 °F -0.0 °F 47% 30.29 in 10.0 mi NW 13.8 mph 24.2 mph N/A   Clear
4:56 PM 17.1 °F 1.5 °F -2.0 °F 43% 30.30 in 10.0 mi WNW 17.3 mph - N/A   Clear
5:56 PM 15.1 °F 0.5 °F -0.9 °F 49% 30.35 in 10.0 mi NNW 13.8 mph 20.7 mph N/A   Partly Cloudy
6:56 PM 12.9 °F 2.6 °F -0.0 °F 56% 30.38 in 10.0 mi WNW 6.9 mph - N/A   Clear
7:56 PM 9.0 °F -3.2 °F -0.0 °F 67% 30.40 in 10.0 mi WNW 8.1 mph - N/A   Clear
8:56 PM 9.0 °F -4.2 °F -0.9 °F 64% 30.42 in 10.0 mi WNW 9.2 mph - N/A   Clear
9:56 PM 5.0 °F -5.6 °F -2.9 °F 70% 30.44 in 10.0 mi West 5.8 mph - N/A   Clear
10:56 PM 1.9 °F -9.2 °F -4.0 °F 76% 30.45 in 10.0 mi WSW 5.8 mph - N/A   Clear
11:56 PM 1.9 °F -9.2 °F -4.0 °F 76% 30.46 in 10.0 mi West 5.8 mph - N/A   Clear